Temp
86 87 78 79 78 78 79 79 78 78 78 78 78 77 77 77 76 76 76 76 76 76 76 77 77 78 78 78 78 78 78 78 78 79 79 79 79 80 80 81 81 86 80
89 86 78 78 78 78 79 79 78 78 77 78 78 77 77 77 77 76 76 76 76 76 77 77 77 78 78 78 79 78 79 78 78 78 79 80 79 80 80 81 81 84 79
86 84 82 78 78 78 78 78 78 77 77 77 77 77 77 77 77 77 76 76 76 77 77 77 77 78 78 78 79 79 79 78 78 78 79 85 84 79 80 81 81 80 78
86 82 84 78 78 78 78 78 77 77 77 77 77 78 78 77 77 77 77 77 77 77 78 78 78 78 78 78 78 79 79 78 78 78 84 84 84 79 80 80 80 80 79
84 83 83 78 78 78 78 78 77 77 77 77 77 77 78 77 77 77 77 77 77 78 79 78 78 78 78 78 78 78 78 78 78 80 82 82 83 82 79 79 80 79 78
85 84 82 78 78 78 78 78 77 77 77 77 77 77 77 77 77 76 77 77 78 78 78 79 78 78 77 77 77 77 78 77 78 83 81 80 81 77 77 78 79 79 76
86 84 85 78 77 78 78 78 77 77 77 77 77 77 77 77 76 76 76 77 77 77 78 78 78 78 77 77 76 77 77 77 82 81 81 81 81 74 76 78 78 77 75
86 84 84 79 77 77 78 78 77 77 77 77 77 77 77 77 76 76 76 76 76 76 76 77 77 77 76 76 76 75 76 76 80 80 81 81 78 74 76 77 78 77 76
88 84 84 85 81 77 77 77 77 76 76 76 76 76 76 75 75 75 75 75 75 75 75 75 76 76 75 75 76 75 76 76 80 80 81 82 76 75 76 77 78 78 76
86 86 85 84 85 84 84 77 76 76 76 75 75 75 75 75 75 74 73 73 73 74 74 75 75 75 75 74 75 75 75 76 80 80 81 82 74 75 77 77 78 77 77
84 83 84 84 83 83 85 82 77 77 76 75 75 75 75 79 78 77 74 72 72 73 73 74 74 74 74 75 75 74 75 81 81 81 81 76 74 75 77 77 77 77 77
82 82 84 80 82 82 82 81 82 82 81 79 78 77 78 77 76 76 74 72 72 73 73 73 73 73 75 80 81 76 80 81 80 79 81 74 73 75 77 77 77 77 77
85 84 82 79 79 80 81 81 81 80 79 77 76 76 76 75 75 76 76 76 76 74 77 76 76 78 76 78 79 79 80 79 79 80 79 73 73 75 77 77 77 77 76
85 83 81 79 77 77 80 79 80 78 77 77 77 75 75 75 74 73 75 75 73 75 74 75 76 74 75 76 77 77 78 78 79 79 78 73 73 74 76 77 77 77 76
82 82 80 77 77 76 76 78 77 77 77 78 77 76 75 75 73 74 73 75 74 76 74 72 72 74 73 74 76 76 77 77 76 77 78 74 72 73 75 76 77 77 76
81 81 78 77 76 76 76 75 75 75 77 77 76 76 74 74 73 74 73 73 71 68 71 72 74 73 74 73 74 74 75 75 75 75 78 78 72 72 74 76 76 76 76
81 80 74 75 75 74 74 75 76 78 77 76 75 73 73 73 72 71 70 71 70 67 69 71 72 72 71 73 73 74 75 74 75 75 77 78 79 72 73 74 76 75 76
81 73 75 77 74 74 74 75 77 77 77 76 75 75 73 73 72 71 70 70 68 68 70 71 70 71 71 72 70 72 73 74 74 75 77 77 76 77 75 74 75 75 75
75 73 73 74 74 73 74 76 75 74 74 75 75 75 73 73 72 70 69 67 69 69 71 69 69 70 69 70 70 72 74 74 74 76 75 76 77 77 79 75 73 74 73
73 73 73 74 73 73 74 73 74 74 74 74 74 74 73 73 72 69 67 66 69 70 70 70 68 69 69 69 69 69 72 74 75 73 74 77 76 78 79 79 78 78 72
71 71 72 72 71 73 73 73 73 73 74 74 74 73 73 73 72 70 69 67 65 68 68 69 69 68 67 68 67 68 69 71 73 73 75 75 75 76 78 80 79 80 74
70 71 71 72 71 73 74 73 75 74 75 75 74 72 73 73 72 70 67 68 66 67 67 67 67 67 66 68 66 67 62 67 71 73 72 72 75 78 76 74 74 77 73
70 70 71 71 71 72 73 72 71 72 72 73 73 73 73 72 71 69 69 69 68 69 68 67 66 67 65 68 68 67 63 66 69 72 70 68 70 74 72 70 73 73 69
71 72 73 72 71 72 72 72 71 73 72 72 71 71 71 72 71 70 69 69 69 71 68 68 69 69 68 65 67 68 70 70 68 62 68 68 69 70 68 69 69 68 72
71 72 72 72 72 72 71 73 73 71 72 71 71 68 69 70 70 70 70 70 69 71 68 68 67 67 67 66 67 68 68 69 71 66 61 66 69 68 67 68 68 68 68
73 73 72 72 71 72 73 72 72 71 69 71 69 69 69 70 68 70 70 70 69 70 69 69 69 68 68 68 68 69 67 70 69 67 65 65 62 64 68 66 68 66 66
MSLP
1009.51 1009.99 1010.86 1011.39 1011.96 1012.53 1012.88 1013.22 1013.50 1013.76 1014.04 1014.35 1014.51 1014.65 1014.78 1014.98 1015.10 1015.18 1015.30 1015.44 1015.55 1015.63 1015.58 1015.66 1015.77 1015.88 1015.90 1015.99 1015.84 1015.76 1015.92 1016.01 1015.86 1015.87 1015.88 1015.84 1015.94 1015.97 1016.05 1016.21 1016.31 1016.10 1016.46
1008.76 1009.78 1010.57 1011.13 1011.70 1012.20 1012.55 1012.89 1013.21 1013.51 1013.88 1014.20 1014.37 1014.58 1014.79 1014.90 1015.02 1015.20 1015.24 1015.22 1015.29 1015.48 1015.59 1015.53 1015.50 1015.70 1015.76 1015.89 1015.78 1015.61 1015.81 1015.92 1015.90 1015.88 1015.90 1015.76 1015.81 1015.84 1015.93 1016.01 1016.12 1016.12 1016.45
1008.63 1009.40 1010.27 1010.80 1011.28 1011.75 1012.20 1012.61 1013.02 1013.37 1013.65 1013.87 1014.16 1014.44 1014.61 1014.72 1014.95 1015.13 1015.19 1015.17 1015.11 1015.16 1015.28 1015.33 1015.43 1015.44 1015.47 1015.64 1015.78 1015.54 1015.60 1015.78 1015.81 1015.80 1015.87 1015.50 1015.47 1015.69 1015.64 1015.81 1015.87 1016.19 1016.48
1008.46 1009.27 1009.68 1010.40 1010.81 1011.47 1012.02 1012.37 1012.77 1013.16 1013.49 1013.71 1014.02 1014.24 1014.45 1014.54 1014.67 1014.81 1014.80 1014.87 1014.95 1014.92 1014.88 1015.14 1015.23 1015.30 1015.27 1015.38 1015.69 1015.49 1015.47 1015.54 1015.62 1015.64 1015.44 1015.46 1015.42 1015.62 1015.51 1015.63 1015.77 1015.99 1016.39
1008.67 1009.04 1009.49 1010.12 1010.54 1011.14 1011.68 1012.13 1012.48 1012.76 1013.08 1013.43 1013.76 1014.04 1014.24 1014.34 1014.37 1014.43 1014.56 1014.67 1014.74 1014.66 1014.58 1014.64 1014.73 1014.92 1015.10 1015.11 1015.33 1015.47 1015.42 1015.44 1015.54 1015.40 1015.35 1015.49 1015.47 1015.44 1015.53 1015.48 1015.59 1015.92 1016.49
1008.69 1009.11 1009.50 1010.06 1010.57 1010.98 1011.34 1011.72 1012.13 1012.51 1012.84 1013.15 1013.48 1013.71 1013.90 1014.01 1014.18 1014.32 1014.29 1014.39 1014.36 1014.35 1014.32 1014.27 1014.35 1014.48 1014.84 1014.91 1015.10 1015.27 1015.09 1015.28 1015.37 1014.95 1015.19 1015.40 1015.53 1015.64 1015.54 1015.41 1015.35 1015.79 1016.57
1008.28 1008.74 1009.43 1010.00 1010.26 1010.55 1011.01 1011.57 1011.99 1012.34 1012.66 1012.94 1013.16 1013.35 1013.57 1013.72 1013.89 1013.99 1014.01 1014.00 1013.94 1014.00 1013.99 1014.00 1014.04 1014.23 1014.46 1014.59 1014.82 1014.77 1014.89 1015.10 1014.87 1014.75 1015.07 1015.26 1015.26 1015.68 1015.53 1015.35 1015.33 1015.87 1016.59
1007.95 1008.54 1009.04 1009.59 1010.15 1010.43 1010.96 1011.40 1011.93 1012.29 1012.59 1012.91 1013.07 1013.22 1013.32 1013.41 1013.60 1013.72 1013.74 1013.70 1013.66 1013.73 1013.74 1013.82 1013.88 1014.03 1014.28 1014.38 1014.49 1014.59 1014.84 1014.86 1014.71 1014.61 1014.85 1015.01 1015.13 1015.52 1015.45 1015.28 1015.17 1015.70 1016.33
1007.77 1008.40 1008.90 1009.19 1009.91 1010.45 1010.79 1011.10 1011.71 1012.13 1012.40 1012.75 1012.96 1013.13 1013.23 1013.35 1013.49 1013.63 1013.67 1013.60 1013.48 1013.49 1013.52 1013.68 1013.84 1014.01 1014.16 1014.30 1014.37 1014.47 1014.62 1014.77 1014.65 1014.53 1014.64 1014.80 1015.05 1015.26 1015.27 1015.16 1015.01 1015.26 1015.89
1007.85 1008.10 1008.44 1008.80 1009.29 1009.94 1010.50 1011.00 1011.31 1011.74 1012.15 1012.56 1012.82 1013.05 1013.24 1013.27 1013.35 1013.43 1013.45 1013.42 1013.34 1013.35 1013.33 1013.41 1013.59 1013.71 1013.79 1013.86 1014.07 1014.24 1014.34 1014.45 1014.31 1014.34 1014.47 1014.39 1014.89 1015.03 1015.11 1014.95 1014.78 1014.98 1015.37
1007.84 1008.10 1008.25 1008.56 1008.86 1009.54 1010.06 1010.61 1011.25 1011.57 1011.92 1012.37 1012.70 1012.90 1013.07 1012.93 1013.05 1013.21 1013.26 1013.37 1013.25 1013.26 1013.23 1013.24 1013.31 1013.37 1013.53 1013.59 1013.76 1013.94 1014.07 1013.82 1013.97 1014.12 1014.06 1014.35 1014.65 1014.79 1014.86 1014.69 1014.70 1014.68 1015.01
1006.95 1007.46 1007.63 1008.15 1008.58 1009.17 1009.78 1010.29 1010.83 1011.24 1011.60 1012.02 1012.34 1012.56 1012.61 1012.90 1012.98 1013.17 1013.18 1013.20 1013.14 1013.02 1012.94 1012.98 1013.00 1013.11 1013.02 1012.77 1012.73 1013.42 1013.38 1013.32 1013.75 1013.85 1013.82 1014.36 1014.47 1014.54 1014.59 1014.41 1014.51 1014.44 1014.73
1005.95 1006.49 1007.14 1007.85 1008.44 1009.01 1009.65 1010.16 1010.69 1011.15 1011.54 1011.93 1012.16 1012.36 1012.48 1012.72 1012.83 1012.92 1012.76 1012.72 1012.71 1012.79 1012.67 1012.62 1012.60 1012.46 1012.50 1012.39 1012.41 1012.62 1012.71 1013.24 1013.28 1013.52 1013.76 1014.14 1014.33 1014.29 1014.33 1014.07 1014.34 1014.19 1014.45
1005.30 1005.53 1006.33 1007.38 1008.37 1009.07 1009.41 1009.94 1010.48 1010.93 1011.39 1011.54 1011.74 1012.11 1012.20 1012.34 1012.54 1012.71 1012.51 1012.47 1012.67 1012.53 1012.55 1012.49 1012.40 1012.48 1012.38 1012.30 1012.25 1012.44 1012.77 1012.90 1012.98 1013.30 1013.49 1014.01 1014.11 1014.19 1014.12 1013.88 1014.06 1013.90 1014.22
1004.92 1005.31 1006.19 1006.94 1007.52 1008.32 1009.21 1009.71 1010.25 1010.74 1011.03 1011.14 1011.43 1011.66 1011.86 1011.99 1012.18 1012.32 1012.30 1012.24 1012.25 1012.14 1012.27 1012.40 1012.43 1012.26 1012.27 1012.21 1012.14 1012.31 1012.51 1012.86 1013.15 1013.39 1013.53 1013.82 1013.98 1014.01 1013.86 1013.66 1013.74 1013.70 1013.98
1003.90 1004.96 1005.82 1006.26 1007.12 1008.14 1008.80 1009.43 1010.03 1010.47 1010.63 1010.96 1011.14 1011.30 1011.60 1011.73 1011.83 1011.91 1011.90 1011.85 1012.03 1012.03 1012.00 1012.09 1012.06 1012.20 1012.06 1012.21 1012.20 1012.32 1012.46 1012.79 1013.03 1013.27 1013.11 1013.09 1013.46 1013.54 1013.53 1013.34 1013.42 1013.47 1013.71
1003.02 1004.48 1005.79 1005.99 1006.68 1007.47 1008.32 1009.13 1009.67 1009.90 1010.42 1010.66 1010.86 1011.14 1011.26 1011.46 1011.46 1011.52 1011.54 1011.48 1011.48 1011.60 1011.73 1011.66 1011.94 1011.96 1012.08 1012.03 1011.97 1012.12 1012.25 1012.53 1012.64 1012.80 1012.84 1012.79 1012.69 1013.09 1013.20 1013.06 1013.10 1013.19 1013.37
1003.03 1003.91 1004.83 1005.76 1006.38 1007.18 1007.98 1008.88 1009.31 1009.58 1010.08 1010.38 1010.60 1010.74 1010.73 1010.87 1010.97 1010.94 1011.02 1010.99 1011.24 1011.29 1011.35 1011.38 1011.63 1011.66 1011.77 1011.76 1011.84 1011.98 1012.12 1012.26 1012.32 1012.40 1012.45 1012.51 1012.63 1012.64 1012.71 1012.67 1012.77 1012.78 1012.62
1002.55 1003.65 1004.40 1005.36 1005.82 1006.76 1007.86 1008.66 1009.19 1009.65 1009.99 1010.20 1010.31 1010.16 1010.21 1010.36 1010.50 1010.59 1010.62 1010.85 1010.97 1011.10 1011.01 1011.23 1011.38 1011.54 1011.50 1011.45 1011.61 1011.73 1011.86 1011.91 1012.09 1012.07 1012.18 1012.27 1012.38 1012.56 1012.51 1012.51 1012.53 1012.71 1012.81
1002.24 1003.09 1003.78 1004.82 1005.53 1006.61 1007.64 1008.60 1009.10 1009.52 1009.79 1009.87 1009.89 1009.75 1009.87 1009.92 1010.12 1010.30 1010.59 1010.81 1010.79 1010.89 1010.91 1011.08 1011.19 1011.30 1011.30 1011.39 1011.46 1011.63 1011.73 1011.90 1011.93 1012.14 1012.16 1012.11 1012.29 1012.21 1012.32 1012.28 1012.23 1012.18 1012.85
1002.11 1002.81 1003.42 1004.55 1005.59 1006.32 1007.34 1008.09 1008.71 1009.02 1009.33 1009.53 1009.57 1009.54 1009.50 1009.55 1009.65 1010.04 1010.29 1010.55 1010.74 1010.75 1010.76 1010.92 1010.88 1010.88 1011.09 1011.29 1011.36 1011.44 1011.67 1011.78 1011.79 1012.02 1012.02 1012.03 1012.14 1012.17 1012.23 1012.14 1012.05 1011.85 1012.20
1001.68 1002.44 1003.13 1004.12 1005.28 1006.16 1007.02 1007.76 1008.27 1008.85 1009.10 1009.18 1009.32 1009.30 1009.19 1009.14 1009.35 1009.71 1010.12 1010.23 1010.47 1010.56 1010.69 1010.74 1010.75 1010.66 1010.84 1011.10 1010.95 1010.95 1011.11 1011.52 1011.58 1011.77 1011.97 1012.12 1012.05 1011.98 1012.15 1012.15 1012.07 1011.82 1012.21
1001.91 1002.55 1003.16 1004.27 1005.33 1006.18 1006.99 1007.81 1008.47 1009.02 1009.09 1008.97 1009.01 1009.05 1009.17 1009.14 1009.26 1009.47 1009.76 1009.99 1010.22 1010.30 1010.23 1010.47 1010.59 1010.49 1010.45 1010.81 1010.90 1010.62 1010.64 1010.17 1010.87 1011.59 1011.83 1012.18 1012.25 1012.02 1012.23 1012.24 1012.05 1012.40 1012.87
1002.59 1003.10 1003.63 1004.59 1005.48 1006.33 1007.13 1007.60 1008.11 1008.38 1008.43 1008.73 1008.89 1009.14 1009.22 1009.15 1009.23 1009.25 1009.59 1009.87 1009.99 1010.07 1010.21 1010.25 1010.45 1010.42 1010.49 1010.44 1010.84 1010.83 1010.52 1010.37 1010.18 1011.35 1011.75 1011.98 1012.18 1012.10 1012.33 1012.49 1012.65 1012.92 1013.28
1002.78 1003.33 1004.06 1004.86 1005.62 1006.45 1007.12 1007.53 1007.91 1008.22 1008.47 1008.67 1008.85 1009.05 1009.21 1009.30 1009.35 1009.49 1009.64 1009.78 1009.90 1009.91 1010.05 1010.19 1010.42 1010.53 1010.47 1010.34 1010.44 1010.45 1010.60 1010.48 1010.32 1010.44 1011.34 1011.54 1011.93 1012.32 1012.59 1012.70 1013.02 1013.52 1014.07
1002.75 1003.54 1004.35 1005.02 1005.83 1006.47 1007.10 1007.57 1007.73 1007.99 1008.29 1008.40 1008.66 1008.87 1009.05 1009.27 1009.58 1009.61 1009.63 1009.74 1009.84 1009.82 1009.86 1010.05 1010.24 1010.34 1010.26 1010.26 1010.32 1010.37 1010.39 1010.12 1010.01 1010.21 1011.00 1011.52 1012.17 1012.42 1012.57 1012.92 1013.41 1013.97 1014.49
Wind_Speed
12 17 20 19 17 16 16 16 15 13 12 11 10 9 8 6 6 5 4 4 3 3 3 3 3 4 4 5 4 2 2 3 4 5 6 6 3 3 7 7 9 12 14
18 20 21 19 18 18 18 17 15 13 12 11 10 9 7 6 5 5 5 5 4 4 4 4 4 5 5 7 6 4 3 2 3 4 5 3 3 5 8 9 10 11 14
20 19 22 21 21 20 19 17 16 14 14 13 12 11 10 9 9 9 8 7 7 7 6 6 6 6 6 7 8 6 5 3 1 3 3 3 3 3 7 10 10 11 15
19 16 21 23 23 21 19 17 17 16 15 14 13 13 12 11 12 12 12 11 10 10 10 9 8 8 7 8 9 8 6 3 3 3 5 4 3 1 7 9 10 13 15
17 16 18 24 22 21 19 18 17 17 17 15 15 14 13 13 14 13 14 14 13 13 13 13 11 10 9 9 9 8 7 6 5 5 4 4 4 2 5 7 10 12 13
17 16 19 22 20 20 20 19 18 18 17 15 15 14 14 15 15 14 15 15 16 15 15 14 12 11 12 11 11 10 8 7 7 6 4 4 6 2 6 7 8 13 17
17 14 16 20 21 21 20 19 18 17 16 16 16 15 15 15 14 14 15 15 16 17 16 15 12 12 12 11 13 11 10 10 10 6 6 5 6 4 7 10 9 14 20
16 16 15 20 19 19 18 17 16 15 15 15 14 14 14 12 11 11 11 13 14 14 16 14 13 12 12 11 12 13 10 10 8 8 6 6 4 6 8 11 11 16 22
14 15 14 16 17 18 17 16 15 14 13 12 11 12 8 6 6 7 9 11 12 13 13 14 14 14 13 12 12 12 10 9 9 6 7 5 6 7 9 11 13 15 23
12 14 15 15 16 15 14 15 15 13 11 10 10 8 7 5 5 7 7 8 10 12 14 15 15 15 15 13 11 12 11 10 10 6 6 5 6 9 10 11 14 15 18
10 13 14 15 14 13 13 12 12 13 11 10 10 10 7 5 5 6 6 8 8 9 11 12 14 15 15 15 15 13 12 8 7 6 5 6 8 11 11 12 14 14 18
17 17 16 15 14 13 10 10 11 9 8 9 8 8 5 5 5 6 8 9 9 10 11 9 11 9 13 10 8 13 8 9 7 6 6 7 9 11 12 13 14 14 17
19 15 16 14 12 13 10 8 5 5 6 6 9 7 6 5 5 5 5 5 5 6 6 6 6 6 7 8 7 7 8 7 6 5 7 8 10 12 13 13 13 13 17
20 21 18 15 12 12 8 8 7 6 6 6 7 8 6 5 7 7 6 6 5 5 6 5 4 5 6 8 9 9 9 8 5 4 6 9 10 12 13 13 13 14 18
19 18 16 16 16 13 11 8 7 7 6 6 6 8 7 8 8 8 8 7 7 6 6 6 5 4 5 6 7 8 9 9 7 5 5 9 11 13 13 12 12 13 18
18 16 17 18 15 13 11 11 8 6 6 6 6 7 9 8 8 8 8 9 8 5 6 5 5 4 4 5 6 8 8 7 6 7 6 6 9 12 12 10 10 11 16
18 11 15 17 17 16 14 11 8 7 6 6 7 8 9 10 10 11 8 8 7 5 7 6 5 4 4 5 7 7 7 6 6 7 7 6 5 9 11 8 8 10 17
13 15 15 13 16 16 13 10 7 6 5 6 7 7 10 11 11 11 9 7 5 5 6 5 5 5 5 5 6 5 6 6 6 6 6 6 5 4 5 5 6 7 10
13 15 15 16 18 17 12 8 7 6 5 6 7 7 9 10 10 9 6 3 6 5 4 5 4 5 5 6 5 6 5 5 5 4 5 5 5 4 3 0 4 3 9
14 15 17 15 17 15 10 7 4 4 5 6 6 6 8 6 7 7 4 4 5 4 4 5 7 5 5 5 4 5 5 4 4 3 4 4 5 4 2 1 5 5 14
14 16 18 17 16 12 10 8 4 5 5 5 5 7 7 6 5 5 5 4 4 5 5 6 5 6 5 4 4 3 3 4 4 3 3 3 4 3 2 2 4 4 5
17 17 18 18 17 12 9 6 3 3 3 3 3 4 4 4 3 5 5 5 5 4 5 6 7 6 5 5 4 4 4 4 3 3 2 2 3 3 1 4 5 6 9
15 17 17 17 16 12 10 6 3 2 3 3 1 0 1 1 3 5 6 4 4 4 4 5 7 8 6 5 6 2 4 4 6 3 5 3 3 3 2 5 7 12 11
12 15 17 16 14 11 10 7 6 4 2 0 1 1 2 2 3 4 5 5 4 3 4 5 6 5 6 5 4 4 2 3 4 4 3 3 4 3 4 6 8 9 15
15 15 14 14 13 12 9 6 6 4 2 1 1 2 3 3 4 5 5 5 4 4 4 5 6 6 5 5 6 5 4 2 3 4 4 5 3 4 4 7 7 9 9
16 15 14 14 12 10 9 7 6 4 4 1 1 1 2 3 3 4 5 4 4 3 5 6 6 7 5 3 4 5 4 1 4 3 5 5 4 2 5 6 9 8 9
Wind_Direction
188 163 169 168 163 166 170 173 174 172 171 171 171 172 169 171 178 183 185 180 183 202 202 214 225 259 259 263 269 284 304 334 4 16 10 21 1 200 191 191 188 193 155
160 169 171 168 168 176 181 181 180 180 181 183 185 188 188 199 217 225 229 236 238 242 247 248 240 237 249 265 258 260 263 294 337 5 356 10 5 212 195 198 196 201 168
161 170 172 171 176 183 185 184 183 186 188 190 194 200 205 210 219 237 245 249 262 268 264 263 261 251 248 253 262 252 249 234 269 327 327 307 311 228 200 198 194 193 170
164 170 176 177 181 185 187 186 186 190 196 196 202 207 214 224 230 236 235 236 243 259 266 262 252 254 253 250 253 259 267 265 257 289 266 283 295 215 216 206 202 190 182
169 171 179 181 182 185 188 190 190 193 198 199 208 216 221 227 232 235 239 238 243 246 257 259 254 254 247 248 253 249 251 261 266 244 254 269 284 218 231 214 210 194 170
173 177 181 183 182 186 190 192 193 195 198 201 211 218 224 233 237 243 244 247 245 248 253 258 267 274 258 248 245 243 240 240 253 237 237 220 266 305 249 219 210 177 149
178 181 184 183 185 188 191 193 196 198 199 205 211 219 228 240 251 251 250 251 252 255 257 254 262 266 271 267 260 254 246 233 252 225 230 236 240 256 252 232 205 180 158
177 183 188 185 189 190 191 191 196 200 203 209 215 224 238 251 251 261 261 266 266 258 256 257 262 268 270 271 262 257 254 247 239 239 230 231 215 240 247 238 214 179 170
181 182 188 189 194 193 190 188 193 201 203 209 217 228 240 249 263 275 277 275 273 272 270 263 261 265 267 267 264 253 249 244 254 236 240 233 203 233 244 239 230 201 187
188 190 190 192 193 197 194 191 189 193 196 206 211 205 214 229 263 269 280 266 279 275 271 267 263 261 263 264 263 252 240 241 241 238 236 244 240 249 252 252 235 216 196
204 200 196 194 193 193 196 194 187 190 190 194 200 202 198 238 259 272 276 264 267 269 267 263 262 264 261 258 250 241 231 234 229 238 238 231 240 253 255 260 248 224 200
205 204 200 197 194 190 190 190 194 195 197 202 204 201 211 228 242 265 262 255 266 267 283 295 281 298 252 245 228 227 227 229 227 238 244 246 251 258 257 260 250 231 208
213 204 205 196 194 191 186 181 184 190 193 200 203 205 213 225 233 250 258 259 263 262 270 273 277 273 275 247 239 238 230 221 230 237 249 253 259 263 263 266 252 233 210
211 214 197 193 183 187 185 180 186 191 197 204 207 214 224 233 235 247 252 253 249 255 263 264 267 276 268 250 240 230 225 230 224 244 248 260 266 267 267 270 256 243 212
225 215 201 182 186 179 178 175 187 195 202 212 216 226 232 241 239 246 247 250 247 245 246 255 252 266 265 244 232 221 216 223 234 253 251 249 261 266 266 268 263 247 216
225 213 197 190 181 168 176 177 185 198 203 216 229 238 230 238 239 251 246 246 244 226 238 237 234 258 256 237 223 217 216 224 236 248 246 256 262 264 267 264 267 251 224
224 205 191 182 177 173 175 179 189 196 212 221 237 238 235 235 240 244 247 246 248 215 231 222 228 234 240 230 224 214 221 227 243 249 249 257 263 233 256 243 275 267 231
221 192 173 183 177 173 172 178 187 191 216 236 245 247 246 243 241 245 243 245 243 231 222 223 219 233 233 225 218 217 216 224 241 241 247 258 246 253 235 234 262 277 218
187 177 170 179 172 167 167 175 181 198 224 242 249 251 252 246 240 239 244 226 215 224 228 235 213 227 229 229 216 211 213 227 238 243 259 237 227 210 214 147 226 206 182
170 167 163 170 159 154 153 153 166 212 240 246 249 248 247 237 228 225 226 223 206 218 215 220 223 210 226 228 222 215 218 223 225 230 248 214 216 210 197 218 224 196 176
168 165 159 153 154 149 151 157 180 219 238 234 238 248 243 228 211 213 215 201 193 215 213 218 234 225 221 206 193 189 199 205 187 210 204 204 211 202 236 226 226 218 170
170 165 155 153 152 153 152 147 152 194 227 265 261 262 241 246 202 212 202 196 195 202 203 208 215 220 223 198 198 171 174 167 160 181 166 174 187 235 268 173 208 170 148
168 161 150 145 150 149 141 131 133 195 228 231 221 316 317 247 206 209 189 180 172 204 212 210 212 214 197 191 211 189 167 180 160 142 138 129 195 168 155 162 148 121 115
159 150 142 144 147 147 149 156 172 202 229 107 338 32 96 97 128 175 170 173 190 194 196 188 193 204 214 196 198 237 252 140 174 159 128 183 187 119 159 134 120 120 130
153 146 143 141 146 152 159 166 175 190 151 128 131 131 114 106 126 138 166 172 171 192 180 179 186 208 213 205 207 188 212 202 202 145 159 171 99 133 146 126 123 126 129
148 143 141 145 153 151 159 169 185 176 147 147 122 153 152 136 119 158 143 151 159 172 181 186 194 201 217 235 202 208 199 212 183 158 129 146 119 96 153 134 122 127 129